Flag for Germany Weather past 2 weeks in Memmingen, Bavaria, Germany

Now
64 °F

Sunny.


Feels Like: 64 °F
Forecast: 63 / 92 °F
Wind: 2 mph from Southeast

Location: Kempten

Current Time: Jul 4, 2015 at 7:50:30 AM

Latest Report: Jul 4, 2015 at 7:00 AM


Visibility: 13 mi

Pressure: 30.19 "Hg (28.13 "Hg at 602m altitude)

Humidity: 83%

Dew point: 58 °F

Location of MemmingenLocation

Historic Weather in Memmingen — Graph

°F

Memmingen temperature yesterday

Maximum temperature yesterday: 88 °F (at 6:00 PM)
Minimum temperature yesterday: 64 °F (at 4:00 AM)
Average temperature yesterday: 75 °F

Past Weeks' High & Low Weather Summary

 TemperatureHumidityPressure
High88 °F (Jul 3, 6:00 PM)98% (Jun 28, 12:00 AM)30.27 "Hg (Jun 28, 12:00 AM)
Low45 °F (Jun 25, 4:00 AM)28% (Jun 30, 4:00 PM)29.73 "Hg (Jun 22, 10:00 PM)
Average62 °F69%30.10 "Hg
* Reported Jun 19 7:00 AM — Jul 4 7:00 AM, Memmingen, Weather by CustomWeather, © 2015

Note: Actual official high and low records may vary slightly from our data, if they occured in-between our weather recording intervals... More about our weather records

Advertising

Memmingen weather history for previous 24 hours

 ConditionsComfort  
Time TempWeatherWind HumidityBarometerVisibility
7:00 AM
Sat, Jul 4
64 °FSunny.2 mph83%30.19 "Hg12 mi
6:00 AM62 °FOvercast.3 mph85%30.20 "Hg13 mi
4:00 AM60 °FPassing clouds.2 mph93%30.21 "Hg9 mi
3:00 AM62 °FClear.2 mph92%30.22 "Hg9 mi
2:00 AM63 °FClear.3 mph90%30.22 "Hg11 mi
1:00 AM64 °FPassing clouds.3 mph89%30.22 "Hg11 mi
12:00 AM66 °FOvercast.2 mph88%30.22 "Hg14 mi
10:00 PM
Fri, Jul 3
72 °FClear.1 mph78%30.18 "Hg17 mi
9:00 PM75 °FSunny.2 mph70%30.16 "Hg19 mi
8:00 PM82 °FSunny.2 mph44%30.15 "Hg19 mi
7:00 PM87 °FSunny.2 mph39%30.13 "Hg16 mi
6:00 PM88 °FPassing clouds.2 mph32%30.11 "Hg16 mi
4:00 PM88 °FPassing clouds.2 mph34%30.12 "Hg6 mi
3:00 PM87 °FSunny.2 mph34%30.14 "Hg19 mi
2:00 PM85 °FPassing clouds.2 mph39%30.17 "Hg13 mi
1:00 PM78 °FPartly sunny.1 mph64%30.21 "Hg14 mi
12:00 PM69 °FOvercast.2 mph91%30.25 "Hg6 mi
10:00 AM76 °FOvercast.1 mph62%30.22 "Hg15 mi
9:00 AM77 °FSunny.2 mph58%30.19 "Hg12 mi
8:00 AM73 °FScattered clouds.2 mph63%30.21 "Hg13 mi
7:00 AM68 °FSunny.2 mph74%30.22 "Hg14 mi
Weather by CustomWeather, © 2015

See weather overviewHow to use our weather pages